Tracking 33190 objects as of 9-Feb-2026
HD Live streaming from Space Station
objects crossing your sky now

STARLINK-36428

Track STARLINK-36428 now!
10-day predictions
STARLINK-36428 is classified as:


NORAD ID: 67362
Int'l Code: 2026-003AE
Perigee: 444.6 km
Apogee: 445.7 km
Inclination: 43.0 °
Period: 93.3 minutes
Semi major axis: 6816 km
RCS: Unknown
Launch date: January 9, 2026
Source: United States (US)
Launch site: AIR FORCE EASTERN TEST RANGE (AFETR)
Your satellite tracking list
Your tracking list is empty




NASA's NSSDC Master Catalog

Two Line Element Set (TLE):
1 67362U 26003AE  26040.25002315 -.02039914  00000-0 -51295-1 0  9998
2 67362  42.9999  27.8088 0000790 272.6317  60.0723 15.42756077  6104
Source of the keplerian elements: AFSPC